Ukiah, CA

4:55 PM PDT on April 25, 2017 (GMT -0700)
Ukiah Municipal

Weather History for KUKI - July, 2014

Change the Weather History Date:

Wednesday, July 30, 2014

  Actual Average Record
Temperature  
Mean Temperature 85 °F 74 °F  
Max Temperature 106 °F 94 °F 109 °F (1977)
Min Temperature 63 °F 55 °F 40 °F (1924)
Degree Days  
Heating Degree Days 0 0  
Month to date heating degree days 0  
Since 1 June heating degree days 32  
Since 1 July heating degree days 0  
Cooling Degree Days 19 9  
Month to date cooling degree days 272  
Year to date cooling degree days 436  
Since 1 June cooling degree days 384  
Growing Degree Days 34 (Base 50)    
Moisture  
Dew Point 43 °F    
Average Humidity 34    
Maximum Humidity 60    
Minimum Humidity 7    
Precipitation  
Precipitation T in 0.00 in 0.00 in (2017)
Month to date precipitation T 0.04  
Year to date precipitation 16.63 23.42  
Since 1 July precipitation T  
Snow  
Snow 0.00 in - - ()
Month to date snowfall 0.0  
Since 1 June snowfall 0.0  
Since 1 July snowfall 0.0  
Snow Depth -    
Sea Level Pressure  
Sea Level Pressure 29.92 in    
Wind  
Wind Speed 4 mph (ENE)    
Max Wind Speed 17 mph    
Max Gust Speed 22 mph    
Visibility 10 miles    
Events      
T = Trace of Precipitation, MM = Missing Value Source: NWS Daily Summary

Daily Weather History Graph

Daily Weather History Graph

Search for Another Location

Airport or City:

Trip Planner

Search our weather history database for the weather conditions in past years. The results will help you decide how hot, cold, wet, or windy it might be!

Date:

Astronomy

Jul. 30, 2014 Rise Set
Actual Time 6:11 AM PDT 8:26 PM PDT
Civil Twilight 5:41 AM PDT 8:56 PM PDT
Nautical Twilight 5:04 AM PDT 9:32 PM PDT
Astronomical Twilight 4:24 AM PDT 10:13 PM PDT
Moon 9:46 AM PDT (7/30) 10:13 PM PDT (7/30)
Length of Visible Light 15h 14m
Length of Day
14h 14m
Waxing Crescent, 13% of the Moon is Illuminated
Jul 30
Waxing Crescent
Aug 3
First Quarter
Aug 10
Full
Aug 17
Last Quarter
Aug 25
New

Hourly Weather History & Observations

Time (PDT) Temp. Dew Point Humidity Pressure Visibility Wind Dir Wind Speed Gust Speed Precip Events Conditions
1:56 AM 68.0 °F 52.0 °F 56% 29.94 in 10.0 mi East 3.5 mph - N/A   Clear
2:56 AM 68.0 °F 51.1 °F 55% 29.94 in 10.0 mi Calm Calm - N/A   Clear
3:56 AM 70.0 °F 46.0 °F 42% 29.94 in 10.0 mi ENE 3.5 mph - 0.00 in   Partly Cloudy
4:56 AM 66.9 °F 51.1 °F 57% 29.93 in 10.0 mi Variable 4.6 mph - N/A   Clear
5:56 AM 64.0 °F 50.0 °F 60% 29.94 in 10.0 mi East 4.6 mph - N/A   Clear
6:56 AM 66.9 °F 48.0 °F 51% 29.95 in 10.0 mi Calm Calm - N/A   Clear
7:56 AM 71.1 °F 50.0 °F 47% 29.97 in 10.0 mi Calm Calm - N/A   Clear
8:56 AM 73.9 °F 51.1 °F 45% 29.97 in 10.0 mi East 3.5 mph - N/A   Clear
9:56 AM 82.0 °F 48.9 °F 31% 29.95 in 10.0 mi Calm Calm - N/A   Clear
10:56 AM 88.0 °F 50.0 °F 27% 29.94 in 10.0 mi East 4.6 mph - N/A   Clear
11:56 AM 91.0 °F 48.9 °F 23% 29.93 in 10.0 mi Calm Calm - N/A   Clear
12:56 PM 99.0 °F 50.0 °F 19% 29.90 in 10.0 mi ESE 6.9 mph - N/A   Clear
1:56 PM 102.9 °F 42.1 °F 13% 29.88 in 10.0 mi South 5.8 mph - N/A   Clear
2:56 PM 104.0 °F 36.0 °F 10% 29.87 in 10.0 mi SW 10.4 mph 18.4 mph N/A   Clear
3:56 PM 102.9 °F 27.0 °F 7% 29.87 in 10.0 mi WNW 11.5 mph 20.7 mph N/A   Clear
4:56 PM 100.9 °F 34.0 °F 10% 29.87 in 10.0 mi WNW 11.5 mph - N/A   Clear
5:56 PM 100.0 °F 30.9 °F 9% 29.87 in 10.0 mi Variable 6.9 mph - N/A   Clear
6:56 PM 97.0 °F 30.0 °F 9% 29.88 in 10.0 mi North 9.2 mph - N/A   Clear
7:56 PM 93.0 °F 26.1 °F 9% 29.89 in 10.0 mi WNW 3.5 mph - N/A   Clear
9:56 PM 82.0 °F 34.0 °F 18% 29.92 in 10.0 mi Calm Calm - N/A   Clear
10:56 PM 73.0 °F 46.9 °F 39% 29.92 in 10.0 mi ENE 3.5 mph - N/A   Clear
11:56 PM 72.0 °F 48.0 °F 43% 29.92 in 10.0 mi Calm Calm - N/A   Clear